Weather History for Port Angeles, WA

Change the Weather History Date:

Thursday, August 29, 2013

  Actual Average Record
Temperature  
Mean Temperature 62 °F -  
Max Temperature 68 °F 68 °F 89 °F (1974)
Min Temperature 57 °F 50 °F 39 °F (1965)
Degree Days  
Heating Degree Days 4    
Growing Degree Days 12 (Base 50)    
Moisture  
Dew Point 59 °F    
Average Humidity 95    
Maximum Humidity 100    
Minimum Humidity 87    
Precipitation  
Precipitation 0.31 in - - ()
Sea Level Pressure  
Sea Level Pressure 29.88 in    
Wind  
Wind Speed 2 mph (NW)    
Max Wind Speed 10 mph    
Max Gust Speed -    
Visibility 4 miles    
Events Fog , Rain    
Averages and records for this station are not official NWS values.
T = Trace of Precipitation, MM = Missing Value Source: NWS Daily Summary

Daily Weather History Graph

Daily Weather History Graph

Search for Another Location

Airport:

Trip Planner

Search our weather history database for the weather conditions in past years. The results will help you decide how hot, cold, wet, or windy it might be!

Date:

Astronomy

Aug. 29, 2013 Rise Set
Actual Time 6:28 AM PDT 8:00 PM PDT
Civil Twilight 5:55 AM PDT 8:32 PM PDT
Nautical Twilight 5:15 AM PDT 9:12 PM PDT
Astronomical Twilight 4:32 AM PDT 9:55 PM PDT
Moon 12:10 AM PDT (8/29) 3:47 PM PDT (8/29)
Length of Visible Light 14h 37m
Length of Day
13h 32m
Last Quarter, 37% of the Moon is Illuminated
Aug 29
Last Quarter
Sep 5
New
Sep 12
First Quarter
Sep 19
Full
Sep 26
Last Quarter

Hourly Weather History & Observations

Time (PDT) Temp. Dew Point Humidity Pressure Visibility Wind Dir Wind Speed Gust Speed Precip Events Conditions
12:27 AM 61.0 °F 59.0 °F 93% 29.90 in 10.0 mi Calm Calm - 0.00 in Rain Light Rain
12:53 AM 61.0 °F 60.1 °F 97% 29.90 in 10.0 mi SSE 3.5 mph - 0.00 in   Overcast
1:53 AM 60.1 °F 59.0 °F 96% 29.88 in 10.0 mi SE 3.5 mph - N/A   Partly Cloudy
2:53 AM 60.1 °F 59.0 °F 96% 29.88 in 10.0 mi Calm Calm - N/A   Mostly Cloudy
3:53 AM 60.1 °F 57.9 °F 93% 29.86 in 2.5 mi Calm Calm - N/A   Partly Cloudy
4:03 AM 60.1 °F 59.0 °F 96% 29.87 in 7.0 mi Calm Calm - N/A   Scattered Clouds
4:53 AM 60.1 °F 57.9 °F 93% 29.86 in 5.0 mi Calm Calm - N/A   Mostly Cloudy
5:06 AM 59.0 °F 59.0 °F 100% 29.86 in 1.8 mi Calm Calm - N/A   Mostly Cloudy
5:19 AM 60.1 °F 59.0 °F 96% 29.86 in 2.0 mi East 3.5 mph - N/A   Mostly Cloudy
5:28 AM 60.1 °F 59.0 °F 96% 29.86 in 1.0 mi East 3.5 mph - N/A   Mostly Cloudy
5:30 AM 60.1 °F 59.0 °F 96% 29.86 in 0.8 mi East 4.6 mph - N/A   Overcast
5:48 AM 60.8 °F 59.0 °F 94% 29.86 in 1.5 mi ESE 3.5 mph - N/A   Overcast
5:51 AM 60.8 °F 59.0 °F 94% 29.86 in 3.0 mi ESE 4.6 mph - N/A   Overcast
5:53 AM 60.1 °F 59.0 °F 96% 29.86 in 4.0 mi SE 3.5 mph - N/A   Overcast
6:00 AM 59.0 °F 59.0 °F 100% 29.85 in 2.5 mi NW 4.6 mph - 0.00 in Rain Light Rain
6:06 AM 59.0 °F 57.9 °F 96% 29.86 in 0.8 mi Calm Calm - 0.00 in Rain Light Rain
6:47 AM 57.2 °F 55.4 °F 94% 29.86 in 0.2 mi Calm Calm - 0.00 in Fog , Rain Light Rain
6:53 AM 57.0 °F 55.9 °F 96% 29.86 in 0.2 mi Calm Calm - 0.00 in Fog , Rain Light Rain
7:42 AM 57.9 °F 57.0 °F 97% 29.85 in 0.8 mi Calm Calm - 0.00 in   Overcast
7:48 AM 57.2 °F 57.2 °F 100% 29.85 in 2.0 mi Calm Calm - 0.00 in   Overcast
7:53 AM 59.0 °F 57.9 °F 96% 29.85 in 3.0 mi Calm Calm - 0.00 in   Overcast
8:05 AM 59.0 °F 57.9 °F 96% 29.85 in 2.5 mi Calm Calm - N/A   Overcast
8:18 AM 59.0 °F 57.0 °F 93% 29.85 in 1.5 mi Calm Calm - N/A   Overcast
8:29 AM 57.9 °F 57.0 °F 97% 29.85 in 0.8 mi Calm Calm - N/A   Overcast
8:40 AM 57.9 °F 57.0 °F 97% 29.85 in 0.2 mi Calm Calm - N/A Fog Fog
8:49 AM 57.2 °F 57.2 °F 100% 29.85 in 0.2 mi Calm Calm - N/A Fog Fog
8:53 AM 57.9 °F 57.0 °F 97% 29.85 in 0.2 mi Calm Calm - N/A Fog Fog
9:23 AM 57.9 °F 57.0 °F 97% 29.84 in 0.2 mi Calm Calm - N/A Fog Fog
9:43 AM 59.0 °F 57.9 °F 96% 29.83 in 0.8 mi Calm Calm - N/A   Overcast
9:50 AM 59.0 °F 57.2 °F 94% 29.84 in 1.2 mi Calm Calm - 0.00 in Rain Light Rain
9:53 AM 59.0 °F 57.9 °F 96% 29.84 in 1.0 mi Calm Calm - 0.00 in   Overcast
9:56 AM 59.0 °F 57.9 °F 96% 29.84 in 0.8 mi Calm Calm - N/A   Overcast
10:08 AM 59.0 °F 57.9 °F 96% 29.83 in 1.5 mi Calm Calm - N/A   Overcast
10:32 AM 59.0 °F 57.9 °F 96% 29.85 in 0.8 mi Calm Calm - 0.01 in Rain Light Rain
10:49 AM 60.8 °F 59.0 °F 94% 29.85 in 1.5 mi WNW 3.5 mph - 0.01 in   Overcast
10:53 AM 60.1 °F 59.0 °F 96% 29.86 in 2.5 mi Calm Calm - 0.01 in Rain Light Rain
11:00 AM 60.1 °F 59.0 °F 96% 29.86 in 4.0 mi Calm Calm - 0.00 in Rain Light Rain
11:10 AM 60.1 °F 59.0 °F 96% 29.86 in 1.8 mi Calm Calm - 0.05 in Rain Rain
11:21 AM 60.1 °F 59.0 °F 96% 29.86 in 3.0 mi NW 4.6 mph - 0.05 in Rain Light Rain
11:53 AM 61.0 °F 60.1 °F 97% 29.85 in 9.0 mi Calm Calm - 0.06 in Rain Light Rain
12:12 PM 62.1 °F 60.1 °F 93% 29.85 in 10.0 mi West 4.6 mph - 0.00 in Rain Light Rain
12:50 PM 62.6 °F 60.8 °F 94% 29.85 in 1.5 mi North 5.8 mph - 0.01 in Rain Light Rain
12:53 PM 61.0 °F 59.0 °F 93% 29.85 in 0.2 mi NNW 5.8 mph - 0.01 in Fog , Rain Light Rain
12:58 PM 60.1 °F 59.0 °F 96% 29.86 in 0.2 mi NNW 6.9 mph - 0.00 in Fog Fog
1:42 PM 63.0 °F 62.1 °F 97% 29.87 in 1.2 mi WNW 3.5 mph - 0.00 in   Overcast
1:45 PM 63.0 °F 62.1 °F 97% 29.87 in 4.0 mi NNW 4.6 mph - 0.00 in   Overcast
1:53 PM 64.0 °F 63.0 °F 96% 29.87 in 10.0 mi Calm Calm - 0.00 in   Overcast
2:11 PM 64.9 °F 61.0 °F 87% 29.87 in 10.0 mi North 5.8 mph - N/A   Mostly Cloudy
2:24 PM 64.0 °F 61.0 °F 90% 29.87 in 10.0 mi NNW 3.5 mph - N/A   Mostly Cloudy
2:53 PM 64.0 °F 62.1 °F 93% 29.88 in 4.0 mi Calm Calm - 0.03 in Rain Light Rain
3:53 PM 64.9 °F 63.0 °F 93% 29.89 in 9.0 mi Calm Calm - 0.05 in Rain Light Rain
4:53 PM 66.9 °F 64.0 °F 90% 29.89 in 10.0 mi Calm Calm - 0.01 in Rain Light Rain
5:53 PM 66.0 °F 64.0 °F 93% 29.88 in 10.0 mi North 4.6 mph - 0.00 in   Overcast
6:53 PM 63.0 °F 62.1 °F 97% 29.89 in 7.0 mi Calm Calm - 0.00 in   Overcast
7:41 PM 64.0 °F 62.1 °F 93% 29.90 in 1.8 mi WNW 4.6 mph - 0.05 in Rain Heavy Rain
7:50 PM 64.4 °F 62.6 °F 94% 29.90 in 4.0 mi West 5.8 mph - 0.06 in Rain Light Rain
7:53 PM 64.0 °F 62.1 °F 93% 29.90 in 8.0 mi West 4.6 mph - 0.06 in Rain Light Rain
8:42 PM 63.0 °F 62.1 °F 97% 29.89 in 1.5 mi Calm Calm - 0.00 in   Overcast
8:53 PM 62.1 °F 61.0 °F 96% 29.89 in 2.5 mi WSW 3.5 mph - 0.00 in   Overcast
9:00 PM 62.1 °F 61.0 °F 96% 29.89 in 7.0 mi Calm Calm - N/A   Overcast
9:16 PM 61.0 °F 60.1 °F 97% 29.89 in 3.0 mi Calm Calm - N/A   Overcast
9:20 PM 61.0 °F 60.1 °F 97% 29.90 in 1.8 mi Variable 3.5 mph - N/A   Overcast
9:50 PM 60.8 °F 60.8 °F 100% 29.90 in 0.8 mi Calm Calm - 0.02 in Rain Light Rain
9:53 PM 61.0 °F 60.1 °F 97% 29.91 in 0.8 mi Calm Calm - 0.02 in Rain Light Rain
10:01 PM 62.1 °F 61.0 °F 96% 29.91 in 2.0 mi Calm Calm - 0.00 in Rain Light Rain
10:10 PM 62.1 °F 61.0 °F 96% 29.91 in 1.0 mi Calm Calm - 0.00 in Rain Light Rain
10:17 PM 61.0 °F 60.1 °F 97% 29.92 in 0.5 mi NW 5.8 mph - 0.00 in Fog Fog
10:22 PM 62.1 °F 60.1 °F 93% 29.93 in 1.0 mi WNW 10.4 mph - 0.00 in   Overcast
10:26 PM 62.1 °F 61.0 °F 96% 29.93 in 3.0 mi WNW 10.4 mph - 0.00 in   Overcast
10:34 PM 62.1 °F 61.0 °F 96% 29.93 in 7.0 mi WNW 8.1 mph - 0.01 in Rain Light Rain
10:40 PM 62.1 °F 61.0 °F 96% 29.93 in 6.0 mi WNW 10.4 mph - 0.02 in Rain Light Rain
10:53 PM 62.1 °F 61.0 °F 96% 29.94 in 4.0 mi West 6.9 mph - 0.06 in Rain Light Rain
11:03 PM 62.1 °F 61.0 °F 96% 29.94 in 10.0 mi WNW 8.1 mph - 0.00 in Rain Light Rain
11:27 PM 60.1 °F 59.0 °F 96% 29.95 in 0.8 mi North 4.6 mph - 0.00 in   Overcast
11:33 PM 59.0 °F 57.9 °F 96% 29.95 in 0.2 mi Calm Calm - 0.00 in Fog Fog
11:35 PM 59.0 °F 57.9 °F 96% 29.95 in 0.5 mi Calm Calm - 0.00 in Fog Fog
11:42 PM 59.0 °F 57.9 °F 96% 29.95 in 1.0 mi NNE 4.6 mph - 0.00 in   Overcast
11:49 PM 59.0 °F 57.2 °F 94% 29.96 in 4.0 mi North 4.6 mph - 0.00 in   Mostly Cloudy
11:53 PM 59.0 °F 57.0 °F 93% 29.96 in 10.0 mi North 3.5 mph - 0.00 in   Mostly Cloudy